TimeCDT,TemperatureF,Dew PointF,Humidity,Sea Level PressureIn,VisibilityMPH,Wind Direction,Wind SpeedMPH,Gust SpeedMPH,PrecipitationIn,Events,Conditions,WindDirDegrees,DateUTC
12:15 AM,94.1,63.3,36,29.78,10.0,ENE,3.5,-,N/A,,Clear,70,2013-06-30 05:15:00
12:35 AM,94.1,61.9,34,29.79,10.0,East,3.5,-,N/A,,Clear,80,2013-06-30 05:35:00
12:55 AM,93.4,62.2,35,29.80,10.0,SE,4.6,-,N/A,,Clear,140,2013-06-30 05:55:00
1:15 AM,92.3,62.4,37,29.80,10.0,SE,3.5,-,N/A,,Clear,140,2013-06-30 06:15:00
1:35 AM,92.1,63.1,38,29.81,10.0,ESE,3.5,-,N/A,,Clear,110,2013-06-30 06:35:00
1:55 AM,90.3,64.6,42,29.81,10.0,Calm,Calm,-,N/A,,Clear,0,2013-06-30 06:55:00
2:15 AM,90.0,64.4,43,29.81,10.0,South,3.5,-,N/A,,Scattered Clouds,170,2013-06-30 07:15:00
2:35 AM,89.8,64.4,43,29.80,10.0,ESE,5.8,-,N/A,Thunderstorm,Thunderstorm,120,2013-06-30 07:35:00
2:55 AM,87.8,65.8,48,29.83,10.0,ENE,3.5,-,N/A,Thunderstorm,Thunderstorm,70,2013-06-30 07:55:00
3:15 AM,87.8,65.5,47,29.83,10.0,WSW,5.8,-,N/A,,Scattered Clouds,240,2013-06-30 08:15:00
3:35 AM,86.9,66.4,50,29.81,10.0,SE,3.5,-,N/A,Thunderstorm,Scattered Clouds,130,2013-06-30 08:35:00
3:55 AM,86.0,66.2,51,29.82,10.0,Calm,Calm,-,N/A,,Scattered Clouds,0,2013-06-30 08:55:00
4:15 AM,84.9,66.9,55,29.82,10.0,Calm,Calm,-,N/A,,Scattered Clouds,0,2013-06-30 09:15:00
4:35 AM,83.7,70.7,65,29.84,10.0,WNW,11.5,23.0,N/A,,Scattered Clouds,290,2013-06-30 09:35:00
4:55 AM,79.7,71.8,77,29.83,10.0,West,3.5,-,N/A,,Scattered Clouds,270,2013-06-30 09:55:00
5:15 AM,78.8,72.0,79,29.82,10.0,Calm,Calm,-,N/A,,Clear,0,2013-06-30 10:15:00
5:35 AM,77.9,72.0,82,29.81,10.0,South,3.5,-,N/A,,Clear,170,2013-06-30 10:35:00
5:55 AM,78.1,72.0,81,29.82,10.0,Calm,Calm,-,N/A,,Clear,0,2013-06-30 10:55:00
6:15 AM,78.4,72.7,82,29.83,10.0,Calm,Calm,-,N/A,,Scattered Clouds,0,2013-06-30 11:15:00
6:35 AM,77.9,72.0,82,29.83,10.0,Calm,Calm,-,N/A,,Clear,0,2013-06-30 11:35:00
6:55 AM,77.9,72.5,83,29.85,10.0,NNW,5.8,-,N/A,,Scattered Clouds,330,2013-06-30 11:55:00
7:15 AM,79.7,72.5,79,29.86,10.0,WNW,4.6,-,N/A,,Scattered Clouds,300,2013-06-30 12:15:00
7:35 AM,79.9,72.5,78,29.83,10.0,SSE,4.6,-,N/A,,Clear,150,2013-06-30 12:35:00
7:55 AM,81.5,71.8,72,29.83,10.0,Calm,Calm,-,N/A,,Clear,0,2013-06-30 12:55:00
8:15 AM,82.6,72.5,71,29.84,10.0,North,4.6,-,N/A,,Clear,350,2013-06-30 13:15:00
8:35 AM,82.8,73.6,74,29.86,10.0,NW,4.6,-,N/A,,Clear,310,2013-06-30 13:35:00
8:55 AM,82.9,73.8,74,29.86,10.0,WNW,4.6,-,N/A,,Clear,290,2013-06-30 13:55:00
9:15 AM,82.4,73.8,75,29.88,10.0,West,6.9,-,N/A,,Clear,280,2013-06-30 14:15:00
9:35 AM,84.0,73.6,71,29.90,10.0,NW,15.0,-,N/A,,Clear,320,2013-06-30 14:35:00
9:55 AM,85.1,72.7,66,29.91,10.0,NNW,12.7,-,N/A,,Clear,330,2013-06-30 14:55:00
10:15 AM,87.4,71.6,59,29.91,10.0,NNW,19.6,-,N/A,,Clear,340,2013-06-30 15:15:00
10:35 AM,87.4,71.1,58,29.91,10.0,NW,13.8,-,N/A,,Clear,320,2013-06-30 15:35:00
10:55 AM,88.3,69.4,53,29.90,10.0,NW,13.8,19.6,N/A,,Clear,320,2013-06-30 15:55:00
11:15 AM,88.7,70.3,54,29.90,10.0,NW,10.4,-,N/A,,Clear,310,2013-06-30 16:15:00
11:35 AM,88.7,70.0,54,29.90,10.0,WNW,10.4,-,N/A,,Clear,300,2013-06-30 16:35:00
11:55 AM,88.9,71.1,55,29.90,10.0,WNW,9.2,-,N/A,,Clear,300,2013-06-30 16:55:00
12:15 PM,88.7,71.4,56,29.89,10.0,West,9.2,-,N/A,,Clear,280,2013-06-30 17:15:00
12:35 PM,88.7,71.6,57,29.89,10.0,West,4.6,-,N/A,,Clear,280,2013-06-30 17:35:00
12:55 PM,88.2,72.3,59,29.89,10.0,West,6.9,-,N/A,,Clear,270,2013-06-30 17:55:00
1:15 PM,88.9,72.0,57,29.88,10.0,WSW,6.9,-,N/A,,Clear,250,2013-06-30 18:15:00
1:35 PM,90.9,72.0,54,29.87,10.0,West,5.8,-,N/A,,Clear,280,2013-06-30 18:35:00
1:55 PM,92.3,70.5,49,29.86,10.0,West,8.1,-,N/A,,Clear,280,2013-06-30 18:55:00
2:15 PM,94.1,70.0,45,29.86,10.0,WNW,3.5,-,N/A,,Clear,290,2013-06-30 19:15:00
2:35 PM,95.7,66.6,38,29.85,10.0,Calm,Calm,-,N/A,,Clear,0,2013-06-30 19:35:00
2:55 PM,96.3,67.6,39,29.85,10.0,North,6.9,-,N/A,,Clear,10,2013-06-30 19:55:00
3:15 PM,97.3,63.1,32,29.84,10.0,NW,10.4,-,N/A,,Clear,320,2013-06-30 20:15:00
3:35 PM,97.9,61.5,30,29.84,10.0,NNW,3.5,-,N/A,,Clear,340,2013-06-30 20:35:00
3:55 PM,99.0,63.9,31,29.84,10.0,West,9.2,-,N/A,,Clear,280,2013-06-30 20:55:00
4:15 PM,98.4,63.0,31,29.83,10.0,NW,6.9,-,N/A,,Clear,320,2013-06-30 21:15:00
4:35 PM,98.8,63.7,31,29.82,10.0,West,4.6,-,N/A,,Clear,280,2013-06-30 21:35:00
4:55 PM,99.3,66.0,34,29.82,10.0,WNW,5.8,-,N/A,,Clear,300,2013-06-30 21:55:00
5:15 PM,99.1,67.1,35,29.81,10.0,NNW,11.5,18.4,N/A,,Clear,330,2013-06-30 22:15:00
5:35 PM,98.2,67.5,36,29.80,10.0,WNW,6.9,-,N/A,,Clear,290,2013-06-30 22:35:00
5:55 PM,98.1,67.3,36,29.80,10.0,NW,8.1,-,N/A,,Clear,320,2013-06-30 22:55:00
6:15 PM,97.5,67.5,37,29.79,10.0,WNW,11.5,-,N/A,,Clear,300,2013-06-30 23:15:00
6:35 PM,99.3,66.2,34,29.79,10.0,NW,11.5,-,N/A,,Clear,310,2013-06-30 23:35:00
6:55 PM,98.8,65.5,34,29.79,10.0,NNW,10.4,-,N/A,,Clear,330,2013-06-30 23:55:00
7:15 PM,97.3,66.0,36,29.79,10.0,NW,9.2,-,N/A,,Clear,320,2013-07-01 00:15:00
7:35 PM,96.8,64.8,35,29.79,10.0,North,4.6,-,N/A,,Clear,350,2013-07-01 00:35:00
7:55 PM,97.0,65.3,35,29.79,10.0,NW,6.9,-,N/A,,Clear,320,2013-07-01 00:55:00
8:15 PM,95.9,65.5,37,29.80,10.0,North,3.5,-,N/A,,Clear,350,2013-07-01 01:15:00
8:35 PM,94.1,66.2,40,29.80,10.0,Calm,Calm,-,N/A,,Scattered Clouds,0,2013-07-01 01:35:00
8:55 PM,92.8,66.4,42,29.80,10.0,NW,3.5,-,N/A,,Scattered Clouds,320,2013-07-01 01:55:00
9:15 PM,92.3,67.1,43,29.80,10.0,NW,3.5,-,N/A,,Mostly Cloudy,320,2013-07-01 02:15:00
9:35 PM,92.8,67.3,43,29.81,10.0,NNW,3.5,-,N/A,,Mostly Cloudy,340,2013-07-01 02:35:00
9:55 PM,91.2,67.8,46,29.82,10.0,Calm,Calm,-,N/A,,Scattered Clouds,0,2013-07-01 02:55:00
10:15 PM,91.4,65.3,42,29.82,10.0,Calm,Calm,-,N/A,,Clear,0,2013-07-01 03:15:00
10:35 PM,90.3,64.8,43,29.83,10.0,Calm,Calm,-,N/A,,Clear,0,2013-07-01 03:35:00
10:55 PM,89.8,64.4,43,29.84,10.0,North,4.6,-,N/A,,Clear,10,2013-07-01 03:55:00
11:15 PM,89.2,62.1,40,29.85,10.0,NNE,5.8,-,N/A,,Scattered Clouds,20,2013-07-01 04:15:00
11:35 PM,89.4,61.0,38,29.85,10.0,NNE,4.6,-,N/A,,Scattered Clouds,30,2013-07-01 04:35:00
11:55 PM,87.8,60.8,40,29.86,10.0,NNE,3.5,-,N/A,,Clear,30,2013-07-01 04:55:00